Regional Weather Roundup
Issued by NWS

Home | Current Version | Previous Version | Text Only | Print | Product List | Glossary Off
Versions: 1 2 3 4 5 6 7 8 9 10 11 12 13 14 15 16 17 18 19 20 21 22 23 24 25 26 27

000
ASUS45 KBOU 170507
RWRCO

WEATHER ROUNDUP FOR COLORADO
NATIONAL WEATHER SERVICE DENVER/BOULDER CO
1000 PM MST MON JAN 16 2017

NOTE: "FAIR" INDICATES FEW OR NO CLOUDS BELOW 12000 FEET WITH NO
SIGNIFICANT WEATHER AND/OR OBSTRUCTIONS TO VISIBILITY.

COZ001>005-013-030-031-170600-
...NORTHWEST COLORADO...

CITY           SKY/WX    TMP DP  RH WIND       PRES   REMARKS
CRAIG          CLOUDY    17  13  84 S6        30.18F WCI   9
HAYDEN         CLOUDY    16  12  86 CALM      30.15F
MEEKER         CLOUDY    18  12  77 N3        30.15F
MOUNT WERNER   NOT AVBL
STEAMBOAT SPGS CLOUDY    18  17  93 CALM      30.14F
WALDEN           N/A    N/A N/A N/A CALM      30.11F VSB 3/4
$$

COZ006>008-011-170600-
...WEST CENTRAL VALLEYS...

CITY           SKY/WX    TMP DP  RH WIND       PRES   REMARKS
GRAND JUNCTION FAIR      30  23  75 CALM      30.12S
MONTROSE       MOCLDY    29  24  82 SE5       30.14R WCI  24
EAGLE          CLOUDY    23  19  86 E6          N/A  WCI  16
RIFLE          FAIR      24  19  81 S3        30.15R
DELTA          CLOUDY    38  30  75 CALM      30.13S
NUCLA          FAIR      32  21  64 CALM      30.13R
$$

COZ017>023-064>068-170600-
...SOUTHWEST COLORADO...

CITY           SKY/WX    TMP DP  RH WIND       PRES   REMARKS
DURANGO        LGT SNOW  32  30  92 CALM      30.09R FOG
CORTEZ         CLOUDY    34  34 100 CALM      30.08R
PAGOSA SPRINGS LGT SNOW  32  32 100 CALM      30.09S
TELLURIDE      CLOUDY    24  24  99 SE7       30.07R WCI  16
WOLF CREEK PAS CLOUDY    18  18 100 CALM      30.14S
$$

COZ009-010-012-014-032>034-037-058>063-170600-
...CENTRAL COLORADO...

CITY           SKY/WX    TMP DP  RH WIND       PRES   REMARKS
ASPEN          CLOUDY    25  21  85 NW6       30.08R WCI  18
BUENA VISTA    LGT SNOW  29  28  95 E3        30.10R
COPPER MTN     FAIR      25  18  74 MISG      30.08S
BERTHOUD PASS  NOT AVBL
COTTONWOOD PAS FOG       28  27  93 CALM      30.09R VSB 1/2
GUNNISON       CLOUDY    25  23  92 CALM      30.09R
KREMMLING      FAIR      14  10  85 CALM      30.13R
LEADVILLE      FOG       22  21  96 CALM      30.07R VSB 1/4
MONARCH PASS     N/A     18  16  93 MISG      30.19S
SALIDA         CLOUDY    31  29  94 SE6       30.17S WCI  25
SUNLIGHT       CLOUDY    19  18  93 NE5       30.12S FOG     WCI  13
WILKERSON PASS MOCLDY   N/A N/A N/A CALM      30.11F
$$

COZ069>075-170600-
...SAN LUIS VALLEY/SANGRE DE CRISTO MOUNTAINS...

CITY           SKY/WX    TMP DP  RH WIND       PRES   REMARKS
ALAMOSA        CLOUDY    27  26  96 W3        30.09R
LA VETA PASS   FOG       21  18  86 SW7       30.10S VSB 1   WCI  13
SAGUACHE       LGT SNOW  32  30  93 CALM      30.09S
$$

COZ035-036-038>040-170600-
...NORTHERN COLORADO FRONT RANGE...

CITY           SKY/WX    TMP DP  RH WIND       PRES   REMARKS
DENVER INTL AP CLOUDY    33  24  69 SW9       30.10S WCI  25
DMNS CITY PARK   N/A     33  26  77 SE6       30.11S WCI  27
AURORA         CLOUDY    30  26  84 S7        30.11S WCI  23
FRONT RANGE AP NOT AVBL
ERIE MUNI ARPT CLOUDY    32  29  88 CALM      30.11S
BOULDER MUN AP CLOUDY    34  32  93 CALM      30.09F
CENTENNIAL     CLOUDY    26  21  81 S6        30.10F WCI  19
BROOMFIELD     CLOUDY    32  27  80 S5        30.10F WCI  27
FORT COLLINS   FAIR      28  21  74 N5        30.10F WCI  23
LONGMONT       MOCLDY    32  30  92 CALM      30.12F
$$

COZ041-046-047-076>085-087-088-170600-
...PIKES PEAK/PALMER DIVIDE AND SOUTHERN FOOTHILLS...

CITY           SKY/WX    TMP DP  RH WIND       PRES   REMARKS
COLO. SPRINGS  CLOUDY    31  24  75 W5        30.13S WCI  26
A. F. ACADEMY  CLOUDY    28  24  84 CALM      30.11S
SCHRIEVER AFB  NOT AVBL
ELLICOTT       CLOUDY   N/A N/A N/A CALM      30.11S
FALCON         CLOUDY    29  22  75 NW3       30.12R
FORT CARSON    LGT SNOW  30  28  93 W3        30.14S FOG
LIMON          CLOUDY    28  24  85 NW8       30.10F WCI  20
MONUMENT HILL  CLOUDY    25  21  86 SW7       30.11S WCI  17
TRINIDAD       LGT SNOW  30  28  92 NW5       30.16R VSB 3/4 WCI  25
$$

COZ042>045-048>051-090-091-170600-
...NORTHEAST COLORADO...

CITY           SKY/WX    TMP DP  RH WIND       PRES   REMARKS
GREELEY ARPT   FAIR      29  24  82 CALM      30.12F
AKRON          FAIR      26  18  71 W13       30.08F WCI  15
BURLINGTON     MOCLDY    31  25  78 NW8       30.09S WCI  23
WRAY           NOT AVBL
STERLING       FAIR      23  19  86 W3        30.09S
HOLYOKE        FAIR      32  23  69 NW10      30.08F WCI  24
FORT MORGAN    CLOUDY    29  22  74 W6        30.11F WCI  23
$$

COZ086-089-092>099-170600-
...SOUTHEAST COLORADO...

CITY           SKY/WX    TMP DP  RH WIND       PRES   REMARKS
PUEBLO         LGT SNOW  33  32  96 CALM      30.15S FOG
LA JUNTA       LGT SNOW  33  31  92 W9        30.16S FOG     WCI  25
LAMAR          LGT SNOW  33  31  92 W8        30.14R FOG     WCI  26
SPRINGFIELD      N/A     31  30  96 NW17      30.12R WCI  19
$$




USA.gov is the U.S. government's official web portal to all federal, state and local government web resources and services.